Regional Weather Roundup
Issued by NWS

Home | Current Version | Previous Version | Graphics & Text | Print | Product List | Glossary On
Versions: 1 2 3 4 5 6 7 8 9 10 11 12 13 14 15 16 17 18 19 20 21 22 23 24 25 26 27 28 29 30 31 32 33 34 35 36 37 38 39 40 41 42 43 44 45 46 47 48 49 50
031
ASUS45 KSLC 072110
RWRUT

UTAH REGIONAL WEATHER ROUNDUP
NATIONAL WEATHER SERVICE SALT LAKE CITY UT
200 PM MST SUN FEB 07 2016

UTZ001>011-023>025-072200-

NORTHERN UTAH

CITY           SKY/WX    TMP DP  RH WIND       PRES   REMARKS
BRIGHAM CITY   SUNNY     32  24  73 CALM      30.61S
HILL AFB       SUNNY     36  21  53 SW2       30.57F
LOGAN          SUNNY     30  23  75 CALM      30.59F
OGDEN          SUNNY     35  26  69 NW5       30.58F WCI  31
PROVO AIRPORT  MOSUNNY   28  19  69 VRB3      30.60F
SALT LAKE CITY MOSUNNY   39  25  57 W3        30.59F HAZE
VERNAL         CLOUDY    23  13  65 E6        30.51F WCI  16
WENDOVER       MOSUNNY   37  27  65 SE5       30.60S WCI  34
HEBER CITY     SUNNY     30  18  59 CALM      30.54S
WEST JORDAN    SUNNY     36  25  64 CALM      30.60S

$$

UTZ012>022-026-027-072200-

SOUTHERN/CENTRAL UTAH

CITY           SKY/WX    TMP DP  RH WIND       PRES   REMARKS
BLANDING       SUNNY     37  27  69 S7        30.46F WCI  31
BRYCE CANYON   SUNNY     37  20  50 N20       30.46F WCI  27
CEDAR CITY     SUNNY     32  19  58 VRB3      30.49F
DELTA          SUNNY     21  20  96 CALM      30.59F
HANKSVILLE     SUNNY     27  23  86 W3        30.54F
MILFORD        SUNNY     19 N/A N/A N13       30.55F WCI   6
MOAB/CYNLANDS  SUNNY     24  18  77 NW10      30.52F WCI  14
PRICE          SUNNY     30  18  60 SE6       30.46F WCI  24
ST GEORGE      CLEAR     54  25  32 W5        30.41F
KANAB          SUNNY     57  28  33 E14       30.42F

$$

REGIONAL REPORTS     COLORADO/ARIZONA

CITY           SKY/WX    TMP DP  RH WIND       PRES   REMARKS
CRAIG, CO      CLOUDY    22  12  65 CALM      30.47F
GRAND JUNCTION SUNNY     30  19  63 NE5       30.50F WCI  25
RIFLE          SUNNY     33  15  47 CALM      30.48F
MONTROSE       SUNNY     34  17  50 CALM      30.49F
CORTEZ         SUNNY     42  24  49 W16       30.36F
PAGE, AZ       SUNNY     43  22  43 N8        30.46F
GRAND CANYON   SUNNY     48  13  24 E13G23    30.42F
KINGMAN        SUNNY     64  22  20 N10       30.30F
FLAGSTAFF      SUNNY     45  13  27 E14G25    30.40F

$$

REGIONAL REPORTS    NEVADA/IDAHO/WYOMING

CITY           SKY/WX    TMP DP  RH WIND       PRES   REMARKS
LAS VEGAS, NV  SUNNY     64  19  17 VRB3      30.31F
ELY            SUNNY     31  17  56 NW3       30.55F
ELKO           SUNNY     27  16  63 CALM      30.61F
POCATELLO, ID  CLOUDY    33  25  72 W5        30.59F WCI  29
BURLEY         MOSUNNY   40  30  67 NW6       30.57F
EVANSTON, WY   CLOUDY    32  20  61 SW15      30.51F WCI  22
ROCK SPRINGS   CLOUDY    33  21  61 W33G40    30.40F WCI  18

$$




USA.gov is the U.S. government's official web portal to all federal, state and local government web resources and services.